sat.trackr.live / text

‹ back to catalog

BSAT-2A

NORAD 26720 · 2001-011B

PAYLOAD ACTIVE UNKNOWN

§ Identity

Operator
Country
JPN
Launch date
2001-03-08
Launch site
FRGUI
Launch vehicle
Mass (kg)
RCS (m²)
15.89

External: N2YO · Heavens-Above · Gunter

§ Orbital elements

Epoch: 2026-09-19T21:38:16.969056Z

Period
1,451.97 min
Inclination
10.9311°
Eccentricity
0.0006657
Mean motion
0.99175488 rev/d
Perigee alt
36,068.5 km
Apogee alt
36,125.0 km
Semi-major
42,474.9 km
B*
0.0000e+0
RAAN
46.5903°
Arg perigee
186.6908°
Mean anomaly
352.2508°
Rev number
9,291

§ Raw data

BSAT-2A1 26720U 01011B   26262.90158529 -.00000009  00000+0  00000+0 0  99952 26720  10.9311  46.5903 0006657 186.6908 352.2508  0.99175488 92910

JSON: /api/v1/satellites/26720 · /tle

For live sub-satellite position, see the globe view (requires WebGL).

§ Visibility from observer

Set your observer location to see the next 7 days of passes ≥ 10°. The values pass through the URL so the page stays shareable.

No JS? Fill the form by hand. The geolocation button needs JavaScript.